Regional Weather Roundup
Issued by NWS

Home | Current Version | Previous Version | Text Only | Print | Product List | Glossary Off
Versions: 1 2 3 4 5 6 7 8 9 10 11 12 13 14 15 16 17 18 19 20 21 22 23 24 25 26 27 28 29 30 31 32 33 34 35 36 37 38 39 40 41 42 43 44 45 46 47 48 49 50

000
ASUS43 KOAX 092110
RWRNE

WEATHER ROUNDUP FOR NEBRASKA
NATIONAL WEATHER SERVICE OMAHA NE
300 PM CST TUE FEB 09 2016

NOTES: SATELLITE DATA IS BEING USED TO AUGMENT CLOUD COVER ABOVE
       12000 FEET.
       "FAIR" INDICATES FEW OR NO CLOUDS BELOW 12,000 FEET WITH NO
       SIGNIFICANT WEATHER AND/OR OBSTRUCTIONS TO VISIBILITY.

  * THESE STATIONS DO NOT REPORT WEATHER SUCH AS RAIN...SNOW OR FOG.

NEZ001>004-019>022-054>056-092200-
NEBRASKA PANHANDLE

CITY           SKY/WX    TMP DP  RH WIND       PRES   REMARKS
SCOTTSBLUFF    PTSUNNY   50  32  50 NW14      30.21F
ALLIANCE       CLOUDY    39  32  76 W13       30.19F WCI  31
CHADRON        CLOUDY    50  33  52 NW10      30.17F
KIMBALL        PTSUNNY  N/A N/A N/A W13       30.24F
SIDNEY         SUNNY     44  30  57 NW17      30.22F
$$

NEZ057>060-069>072-079>082-092200-
SOUTHWEST NEBRASKA

CITY           SKY/WX    TMP DP  RH WIND       PRES   REMARKS
NORTH PLATTE   CLOUDY    34  20  56 SW9       30.21F WCI  27
IMPERIAL       CLOUDY    41  29  62 W5        30.21F
LEXINGTON      CLOUDY    32  17  53 W5        30.25F WCI  27
MCCOOK         CLOUDY    39  20  46 N3        30.25F
OGALLALA       CLOUDY    41  30  65 W5        30.19F
$$

NEZ005>010-023>029-035>040-094-092200-
NORTH CENTRAL NEBRASKA

CITY           SKY/WX    TMP DP  RH WIND       PRES   REMARKS
VALENTINE      CLOUDY    33  20  58 SW10      30.18F WCI  25
AINSWORTH      CLOUDY    32  13  46 SW8G16    30.18F WCI  25
BROKEN BOW     CLOUDY    28  14  55 W7        30.22F WCI  21
O`NEILL        MOSUNNY   30  12  47 W8        30.21F WCI  22
ORD            CLOUDY    28  11  48 CALM      30.23F
THEDFORD       CLOUDY    37  22  55 SW7       30.19F WCI  31
$$

NEZ041-046>049-061>064-073>077-083>087-092200-
SOUTH CENTRAL NEBRASKA

CITY           SKY/WX    TMP DP  RH WIND       PRES   REMARKS
GRAND ISLAND   CLOUDY    27  10  49 NW9       30.27F WCI  18
AURORA         CLOUDY    28  11  49 N10       30.26F WCI  18
HASTINGS       CLOUDY    28  11  48 N10       30.26F WCI  19
HEBRON         SUNNY     28  11  50 N13G21    30.29S WCI  17
HOLDREGE       CLOUDY    28  17  61 N3        30.27S
YORK           CLOUDY    28  14  54 N13       30.26F WCI  18
$$

NEZ011>018-030>034-042>045-092200-
NORTHEAST NEBRASKA

CITY           SKY/WX    TMP DP  RH WIND       PRES   REMARKS
NORFOLK        SUNNY     28  12  51 NW13      30.22S WCI  17
ALBION         CLOUDY    28  12  51 W9        30.24F WCI  19
BLAIR          SUNNY     21   9  58 NW12      30.22R WCI   9
COLUMBUS *     CLOUDY    27   9  46 NW14      30.25S WCI  15
FREMONT        CLOUDY    24  11  57 NW10      30.26R WCI  13
TEKAMAH        PTSUNNY   44  10  25 NW17      30.26R
WAYNE          CLOUDY    25  14  61 N14       30.24S WCI  14
$$

NEZ050>053-065>068-078-088>093-092200-
SOUTHEAST NEBRASKA

CITY           SKY/WX    TMP DP  RH WIND       PRES   REMARKS
LINCOLN        CLOUDY    27  10  49 N10       30.27F WCI  17
OMAHA EPPLEY   MOSUNNY   23   8  52 NW18      30.24S WCI   9
BEATRICE       SUNNY     27  10  47 N14G22    30.27S WCI  16
FALLS CITY     SUNNY     26   4  38 NW16G28   30.24S WCI  14
NEBRASKA CITY  MOSUNNY   24   7  47 N17       30.23S WCI  11
PLATTSMOUTH    SUNNY     22   8  54 NW12      30.23S WCI  10
$$

NEZ044-045-051>053-067-092200-
OMAHA AREA

CITY           SKY/WX    TMP DP  RH WIND       PRES   REMARKS
OMAHA EPPLEY   MOSUNNY   23   8  52 NW18      30.24S WCI   9
BLAIR          SUNNY     21   9  58 NW12      30.22R WCI   9
FREMONT        CLOUDY    24  11  57 NW10      30.26R WCI  13
MILLARD        SUNNY     23   7  50 N9        30.24S WCI  13
OFFUTT AFB     SUNNY     24   8  49 NW13      30.23S WCI  13
PLATTSMOUTH    SUNNY     22   8  54 NW12      30.23S WCI  10
WAHOO          FAIR      25  12  58 NW12      30.24F WCI  14
$$



USA.gov is the U.S. government's official web portal to all federal, state and local government web resources and services.